LiveATC.Net - Listen to live air traffic control over the Internet!

NOTICE

Unauthorized use prohibited. See LiveATC.net Terms of Service



ICAO: CYQI  IATA: YQI   Airport: Yarmouth Airport
City: Yarmouth   State/Province: Nova Scotia
Country: Canada   Continent: North America
CYQI METAR Weather: CYQI 270800Z 24007KT 15SM OVC180 12/10 A2999 RMK AS8 SLP158
CYQI Flight Activity (FlightAware)
CYQI Airport Info   (AirNav) (iFlightPlanner)

CYQI/CZQM CTAF/FIC/Center
Feed Status: UP   Listeners: 1
Listen right in your browser - requires Flash (in browser, requires Flash)
Click here to listen with your own player (launches your MP3 player)
CYQI/CZQM CTAF/FIC/Center Audio Archives
FacilityFrequency
Halifax FIC123.550
Moncton Approach/Departure119.200
Moncton Center (Digby Sector - Moncton)132.200
Moncton Center (Digby Sector)123.900
Moncton Center (TUSKY/BRADD Sector)135.200
Moncton Center (Vitol Sector)128.375
Moncton Center (WHALE /KANNI Sector)132.975
Yarmouth CTAF/UNICOM123.000

ICAO: KPUB  IATA: PUB   Airport: Pueblo Memorial Airport
City: Pueblo   State/Province: Colorado
Country: United States   Continent: North America
KPUB METAR Weather: KPUB 270753Z AUTO 24003KT 10SM CLR 09/M01 A3027 RMK AO2 SLP208 T00891006
KPUB Flight Activity (FlightAware)
KPUB Airport Info   (AirNav) (iFlightPlanner)

ZDV Pueblo Low
Feed Status: DOWN
Last heard on: 2016-09-27 09:00:06 (0 days 0 hours 0 minutes ago)
ZDV Pueblo Low Audio Archives
FacilityFrequency
Denver Center (Pueblo Low Sector)128.375

NOTICE

Unauthorized use prohibited. See LiveATC.net Terms of Service


Find LiveATC Audio Streams


Airport/ARTCC Code

Frequency
(e.g., 124.400, 128.75)
Site-wide search

Browse LiveATC Feeds
LiveATC Coverage Map
Top 50 LiveATC Feeds
Bad Weather Areas

LiveATC FAQ
Offer a LiveATC Feed
Contact LiveATC.net
Press Inquiries

LiveATC on iPhone
LiveATC on Android

Windows Phone
Windows 8/10

LiveATC Mobile
(Mobile browser)

ATC Audio Archives
Interesting Recordings

LiveATC Forums


Home Page
About LiveATC.net
Make a Donation
LiveATC Store

Terms of Use
Privacy Policy

Canadian Air Freqs

AIRMETs/SIGMETs

FAA Airport Status
Nat'l Airspace Status
Arrival Demand Charts


Server Software By:
Icecast.org
Liquidsoap

Please make a donation to help us keep growing!